Year,Month,Day,Hour,Minute,Value (Times are PST for temperature in C)
2008,08,23,00,00,14.00
2008,08,23,00,01,14.00
2008,08,23,00,02,14.00
2008,08,23,00,03,14.00
2008,08,23,00,04,14.00
2008,08,23,00,05,14.00
2008,08,23,00,06,14.00
2008,08,23,00,07,14.00
2008,08,23,00,08,14.00
2008,08,23,00,09,14.00
2008,08,23,00,10,13.90
2008,08,23,00,11,13.90
2008,08,23,00,12,13.90
2008,08,23,00,13,13.90
2008,08,23,00,14,13.90
2008,08,23,00,15,13.90
2008,08,23,00,16,13.80
2008,08,23,00,17,13.80
2008,08,23,00,18,13.80
2008,08,23,00,19,13.80
2008,08,23,00,20,13.80
2008,08,23,00,21,13.80
2008,08,23,00,22,13.80
2008,08,23,00,23,13.80
2008,08,23,00,24,13.80
2008,08,23,00,25,13.90
2008,08,23,00,26,13.90
2008,08,23,00,27,13.90
2008,08,23,00,28,13.90
2008,08,23,00,29,13.90
2008,08,23,00,30,13.90
2008,08,23,00,31,13.90
2008,08,23,00,32,14.00
2008,08,23,00,33,14.00
2008,08,23,00,34,14.00
2008,08,23,00,35,14.00
2008,08,23,00,36,14.00
2008,08,23,00,37,14.00
2008,08,23,00,38,14.00
2008,08,23,00,39,14.10
2008,08,23,00,40,14.10
2008,08,23,00,41,14.10
2008,08,23,00,42,14.10
2008,08,23,00,43,14.20
2008,08,23,00,44,14.20
2008,08,23,00,45,14.20
2008,08,23,00,46,14.20
2008,08,23,00,47,14.20
2008,08,23,00,48,14.20
2008,08,23,00,49,14.20
2008,08,23,00,50,14.20
2008,08,23,00,51,14.20
2008,08,23,00,52,14.20
2008,08,23,00,53,14.30
2008,08,23,00,54,14.30
2008,08,23,00,55,14.30
2008,08,23,00,56,14.30
2008,08,23,00,57,14.30
2008,08,23,00,58,14.30
2008,08,23,00,59,14.30
2008,08,23,01,00,14.30
2008,08,23,01,01,14.40
2008,08,23,01,02,14.40
2008,08,23,01,03,14.40
2008,08,23,01,04,14.40
2008,08,23,01,05,14.40
2008,08,23,01,06,14.40
2008,08,23,01,07,14.40
2008,08,23,01,08,14.50
2008,08,23,01,09,14.50
2008,08,23,01,10,14.50
2008,08,23,01,11,14.50
2008,08,23,01,12,14.50
2008,08,23,01,13,14.50
2008,08,23,01,14,14.60
2008,08,23,01,15,14.60
2008,08,23,01,16,14.60
2008,08,23,01,17,14.60
2008,08,23,01,18,14.60
2008,08,23,01,19,14.60
2008,08,23,01,20,14.60
2008,08,23,01,21,14.60
2008,08,23,01,22,14.60
2008,08,23,01,23,14.50
2008,08,23,01,24,14.50
2008,08,23,01,25,14.50
2008,08,23,01,26,14.50
2008,08,23,01,27,14.50
2008,08,23,01,28,14.50
2008,08,23,01,29,14.60
2008,08,23,01,30,14.60
2008,08,23,01,31,14.60
2008,08,23,01,32,14.60
2008,08,23,01,33,14.60
2008,08,23,01,34,14.60
2008,08,23,01,35,14.60
2008,08,23,01,36,14.60
2008,08,23,01,37,14.60
2008,08,23,01,38,14.70
2008,08,23,01,39,14.70
2008,08,23,01,40,14.70
2008,08,23,01,41,14.70
2008,08,23,01,42,14.70
2008,08,23,01,43,14.70
2008,08,23,01,44,14.70
2008,08,23,01,45,14.70
2008,08,23,01,46,14.70
2008,08,23,01,47,14.80
2008,08,23,01,48,14.80
2008,08,23,01,49,14.80
2008,08,23,01,50,14.80
2008,08,23,01,51,14.80
2008,08,23,01,52,14.80
2008,08,23,01,53,14.80
2008,08,23,01,54,14.80
2008,08,23,01,55,14.80
2008,08,23,01,56,14.80
2008,08,23,01,57,14.80
2008,08,23,01,58,14.80
2008,08,23,01,59,14.80
2008,08,23,02,00,14.80
2008,08,23,02,01,14.80
2008,08,23,02,02,14.80
2008,08,23,02,03,14.80
2008,08,23,02,04,14.80
2008,08,23,02,05,14.80
2008,08,23,02,06,14.80
2008,08,23,02,07,14.90
2008,08,23,02,08,14.90
2008,08,23,02,09,14.90
2008,08,23,02,10,14.90
2008,08,23,02,11,14.90
2008,08,23,02,12,14.90
2008,08,23,02,13,14.90
2008,08,23,02,14,14.90
2008,08,23,02,15,14.90
2008,08,23,02,16,14.90
2008,08,23,02,17,14.90
2008,08,23,02,18,14.90
2008,08,23,02,19,14.90
2008,08,23,02,20,14.90
2008,08,23,02,21,14.90
2008,08,23,02,22,14.90
2008,08,23,02,23,14.90
2008,08,23,02,24,14.90
2008,08,23,02,25,14.90
2008,08,23,02,26,14.90
2008,08,23,02,27,14.80
2008,08,23,02,28,14.80
2008,08,23,02,29,14.80
2008,08,23,02,30,14.80
2008,08,23,02,31,14.80
2008,08,23,02,32,14.80
2008,08,23,02,33,14.80
2008,08,23,02,34,14.80
2008,08,23,02,35,14.80
2008,08,23,02,36,14.80
2008,08,23,02,37,14.80
2008,08,23,02,38,14.80
2008,08,23,02,39,14.80
2008,08,23,02,40,14.80
2008,08,23,02,41,14.80
2008,08,23,02,42,14.80
2008,08,23,02,43,14.80
2008,08,23,02,44,14.80
2008,08,23,02,45,14.80
2008,08,23,02,46,14.90
2008,08,23,02,47,14.90
2008,08,23,02,48,14.90
2008,08,23,02,49,14.90
2008,08,23,02,50,14.90
2008,08,23,02,51,14.90
2008,08,23,02,52,14.90
2008,08,23,02,53,14.90
2008,08,23,02,54,14.90
2008,08,23,02,55,14.90
2008,08,23,02,56,14.90
2008,08,23,02,57,14.90
2008,08,23,02,58,14.80
2008,08,23,02,59,14.80
2008,08,23,03,00,14.80
2008,08,23,03,01,14.80
2008,08,23,03,02,14.90
2008,08,23,03,03,14.90
2008,08,23,03,04,14.90
2008,08,23,03,05,14.90
2008,08,23,03,06,14.90
2008,08,23,03,07,14.90
2008,08,23,03,08,14.90
2008,08,23,03,09,14.90
2008,08,23,03,10,15.00
2008,08,23,03,11,15.00
2008,08,23,03,12,15.00
2008,08,23,03,13,15.00
2008,08,23,03,14,15.00
2008,08,23,03,15,15.00
2008,08,23,03,16,15.00
2008,08,23,03,17,14.90
2008,08,23,03,18,14.90
2008,08,23,03,19,14.90
2008,08,23,03,20,14.90
2008,08,23,03,21,14.90
2008,08,23,03,22,14.90
2008,08,23,03,23,14.90
2008,08,23,03,24,14.90
2008,08,23,03,25,14.90
2008,08,23,03,26,14.90
2008,08,23,03,27,14.90
2008,08,23,03,28,14.90
2008,08,23,03,29,14.90
2008,08,23,03,30,14.90
2008,08,23,03,31,15.00
2008,08,23,03,32,15.00
2008,08,23,03,33,15.00
2008,08,23,03,34,15.00
2008,08,23,03,35,15.00
2008,08,23,03,36,15.00
2008,08,23,03,37,15.00
2008,08,23,03,38,14.90
2008,08,23,03,39,14.90
2008,08,23,03,40,15.00
2008,08,23,03,41,15.00
2008,08,23,03,42,15.00
2008,08,23,03,43,15.00
2008,08,23,03,44,15.00
2008,08,23,03,45,15.00
2008,08,23,03,46,15.10
2008,08,23,03,47,15.10
2008,08,23,03,48,15.10
2008,08,23,03,49,15.10
2008,08,23,03,50,15.10
2008,08,23,03,51,15.10
2008,08,23,03,52,15.10
2008,08,23,03,53,15.10
2008,08,23,03,54,15.10
2008,08,23,03,55,15.10
2008,08,23,03,56,15.10
2008,08,23,03,57,15.10
2008,08,23,03,58,15.10
2008,08,23,03,59,15.10
2008,08,23,04,00,15.20
2008,08,23,04,01,15.10
2008,08,23,04,02,15.10
2008,08,23,04,03,15.10
2008,08,23,04,04,15.10
2008,08,23,04,05,15.10
2008,08,23,04,06,15.10
2008,08,23,04,07,15.10
2008,08,23,04,08,15.10
2008,08,23,04,09,15.10
2008,08,23,04,10,15.10
2008,08,23,04,11,15.10
2008,08,23,04,12,15.10
2008,08,23,04,13,15.10
2008,08,23,04,14,15.10
2008,08,23,04,15,15.10
2008,08,23,04,16,15.10
2008,08,23,04,17,15.10
2008,08,23,04,18,15.10
2008,08,23,04,19,15.20
2008,08,23,04,20,15.20
2008,08,23,04,21,15.20
2008,08,23,04,22,15.10
2008,08,23,04,23,15.10
2008,08,23,04,24,15.10
2008,08,23,04,25,15.20
2008,08,23,04,26,15.20
2008,08,23,04,27,15.20
2008,08,23,04,28,15.10
2008,08,23,04,29,15.20
2008,08,23,04,30,15.20
2008,08,23,04,31,15.20
2008,08,23,04,32,15.10
2008,08,23,04,33,15.10
2008,08,23,04,34,15.10
2008,08,23,04,35,15.20
2008,08,23,04,36,15.10
2008,08,23,04,37,15.10
2008,08,23,04,38,15.10
2008,08,23,04,39,15.10
2008,08,23,04,40,15.00
2008,08,23,04,41,15.00
2008,08,23,04,42,15.00
2008,08,23,04,43,15.00
2008,08,23,04,44,15.00
2008,08,23,04,45,14.90
2008,08,23,04,46,14.90
2008,08,23,04,47,14.80
2008,08,23,04,48,14.80
2008,08,23,04,49,14.80
2008,08,23,04,50,14.80
2008,08,23,04,51,14.80
2008,08,23,04,52,14.70
2008,08,23,04,53,14.70
2008,08,23,04,54,14.60
2008,08,23,04,55,14.60
2008,08,23,04,56,14.60
2008,08,23,04,57,14.60
2008,08,23,04,58,14.50
2008,08,23,04,59,14.50
2008,08,23,05,00,14.50
2008,08,23,05,01,14.50
2008,08,23,05,02,14.50
2008,08,23,05,03,14.50
2008,08,23,05,04,14.50
2008,08,23,05,05,14.50
2008,08,23,05,06,14.50
2008,08,23,05,07,14.40
2008,08,23,05,08,14.40
2008,08,23,05,09,14.40
2008,08,23,05,10,14.40
2008,08,23,05,11,14.40
2008,08,23,05,12,14.40
2008,08,23,05,13,14.40
2008,08,23,05,14,14.40
2008,08,23,05,15,14.30
2008,08,23,05,16,14.30
2008,08,23,05,17,14.30
2008,08,23,05,18,14.30
2008,08,23,05,19,14.30
2008,08,23,05,20,14.30
2008,08,23,05,21,14.30
2008,08,23,05,22,14.30
2008,08,23,05,23,14.30
2008,08,23,05,24,14.30
2008,08,23,05,25,14.20
2008,08,23,05,26,14.20
2008,08,23,05,27,14.20
2008,08,23,05,28,14.20
2008,08,23,05,29,14.20
2008,08,23,05,30,14.20
2008,08,23,05,31,14.20
2008,08,23,05,32,14.20
2008,08,23,05,33,14.20
2008,08,23,05,34,14.20
2008,08,23,05,35,14.20
2008,08,23,05,36,14.20
2008,08,23,05,37,14.20
2008,08,23,05,38,14.20
2008,08,23,05,39,14.20
2008,08,23,05,40,14.20
2008,08,23,05,41,14.20
2008,08,23,05,42,14.20
2008,08,23,05,43,14.20
2008,08,23,05,44,14.20
2008,08,23,05,45,14.20
2008,08,23,05,46,14.20
2008,08,23,05,47,14.20
2008,08,23,05,48,14.20
2008,08,23,05,49,14.20
2008,08,23,05,50,14.20
2008,08,23,05,51,14.20
2008,08,23,05,52,14.20
2008,08,23,05,53,14.20
2008,08,23,05,54,14.20
2008,08,23,05,55,14.20
2008,08,23,05,56,14.20
2008,08,23,05,57,14.20
2008,08,23,05,58,14.20
2008,08,23,05,59,14.20
2008,08,23,06,00,14.20
2008,08,23,06,01,14.20
2008,08,23,06,02,14.20
2008,08,23,06,03,14.20
2008,08,23,06,04,14.20
2008,08,23,06,05,14.20
2008,08,23,06,06,14.20
2008,08,23,06,07,14.20
2008,08,23,06,08,14.20
2008,08,23,06,09,14.20
2008,08,23,06,10,14.20
2008,08,23,06,11,14.20
2008,08,23,06,12,14.20
2008,08,23,06,13,14.20
2008,08,23,06,14,14.20
2008,08,23,06,15,14.20
2008,08,23,06,16,14.20
2008,08,23,06,17,14.20
2008,08,23,06,18,14.30
2008,08,23,06,19,14.30
2008,08,23,06,20,14.30
2008,08,23,06,21,14.30
2008,08,23,06,22,14.30
2008,08,23,06,23,14.30
2008,08,23,06,24,14.30
2008,08,23,06,25,14.30
2008,08,23,06,26,14.30
2008,08,23,06,27,14.30
2008,08,23,06,28,14.30
2008,08,23,06,29,14.30
2008,08,23,06,30,14.30
2008,08,23,06,31,14.30
2008,08,23,06,32,14.30
2008,08,23,06,33,14.30
2008,08,23,06,34,14.30
2008,08,23,06,35,14.20
2008,08,23,06,36,14.20
2008,08,23,06,37,14.20
2008,08,23,06,38,14.20
2008,08,23,06,39,14.20
2008,08,23,06,40,14.20
2008,08,23,06,41,14.20
2008,08,23,06,42,14.20
2008,08,23,06,43,14.20
2008,08,23,06,44,14.20
2008,08,23,06,45,14.20
2008,08,23,06,46,14.20
2008,08,23,06,47,14.20
2008,08,23,06,48,14.20
2008,08,23,06,49,14.20
2008,08,23,06,50,14.20
2008,08,23,06,51,14.20
2008,08,23,06,52,14.20
2008,08,23,06,53,14.20
2008,08,23,06,54,14.20
2008,08,23,06,55,14.20
2008,08,23,06,56,14.20
2008,08,23,06,57,14.20
2008,08,23,06,58,14.20
2008,08,23,06,59,14.20
2008,08,23,07,00,14.20
2008,08,23,07,01,14.30
2008,08,23,07,02,14.30
2008,08,23,07,03,14.30
2008,08,23,07,04,14.30
2008,08,23,07,05,14.30
2008,08,23,07,06,14.30
2008,08,23,07,07,14.30
2008,08,23,07,08,14.30
2008,08,23,07,09,14.30
2008,08,23,07,10,14.30
2008,08,23,07,11,14.40
2008,08,23,07,12,14.40
2008,08,23,07,13,14.40
2008,08,23,07,14,14.40
2008,08,23,07,15,14.40
2008,08,23,07,16,14.40
2008,08,23,07,17,14.40
2008,08,23,07,18,14.50
2008,08,23,07,19,14.50
2008,08,23,07,20,14.50
2008,08,23,07,21,14.50
2008,08,23,07,22,14.50
2008,08,23,07,23,14.50
2008,08,23,07,24,14.50
2008,08,23,07,25,14.50
2008,08,23,07,26,14.50
2008,08,23,07,27,14.50
2008,08,23,07,28,14.50
2008,08,23,07,29,14.50
2008,08,23,07,30,14.50
2008,08,23,07,31,14.60
2008,08,23,07,32,14.60
2008,08,23,07,33,14.60
2008,08,23,07,34,14.60
2008,08,23,07,35,14.60
2008,08,23,07,36,14.60
2008,08,23,07,37,14.60
2008,08,23,07,38,14.70
2008,08,23,07,39,14.70
2008,08,23,07,40,14.70
2008,08,23,07,41,14.70
2008,08,23,07,42,14.70
2008,08,23,07,43,14.80
2008,08,23,07,44,14.80
2008,08,23,07,45,14.80
2008,08,23,07,46,14.80
2008,08,23,07,47,14.80
2008,08,23,07,48,14.90
2008,08,23,07,49,14.90
2008,08,23,07,50,14.90
2008,08,23,07,51,14.90
2008,08,23,07,52,14.90
2008,08,23,07,53,15.00
2008,08,23,07,54,15.00
2008,08,23,07,55,15.10
2008,08,23,07,56,15.10
2008,08,23,07,57,15.10
2008,08,23,07,58,15.10
2008,08,23,07,59,15.20
2008,08,23,08,00,15.20
2008,08,23,08,01,15.20
2008,08,23,08,02,15.20
2008,08,23,08,03,15.20
2008,08,23,08,04,15.20
2008,08,23,08,05,15.20
2008,08,23,08,06,15.30
2008,08,23,08,07,15.30
2008,08,23,08,08,15.30
2008,08,23,08,09,15.30
2008,08,23,08,10,15.20
2008,08,23,08,11,15.20
2008,08,23,08,12,15.10
2008,08,23,08,13,15.10
2008,08,23,08,14,15.00
2008,08,23,08,15,15.00
2008,08,23,08,16,15.00
2008,08,23,08,17,15.00
2008,08,23,08,18,15.00
2008,08,23,08,19,15.00
2008,08,23,08,20,15.00
2008,08,23,08,21,15.00
2008,08,23,08,22,15.00
2008,08,23,08,23,14.90
2008,08,23,08,24,14.90
2008,08,23,08,25,14.80
2008,08,23,08,26,14.80
2008,08,23,08,27,14.70
2008,08,23,08,28,14.70
2008,08,23,08,29,14.80
2008,08,23,08,30,14.80
2008,08,23,08,31,14.80
2008,08,23,08,32,14.80
2008,08,23,08,33,14.80
2008,08,23,08,34,14.80
2008,08,23,08,35,14.90
2008,08,23,08,36,14.90
2008,08,23,08,37,14.90
2008,08,23,08,38,14.90
2008,08,23,08,39,15.00
2008,08,23,08,40,15.00
2008,08,23,08,41,15.10
2008,08,23,08,42,15.10
2008,08,23,08,43,15.10
2008,08,23,08,44,15.20
2008,08,23,08,45,15.20
2008,08,23,08,46,15.20
2008,08,23,08,47,15.20
2008,08,23,08,48,15.20
2008,08,23,08,49,15.30
2008,08,23,08,50,15.30
2008,08,23,08,51,15.30
2008,08,23,08,52,15.30
2008,08,23,08,53,15.30
2008,08,23,08,54,15.30
2008,08,23,08,55,15.30
2008,08,23,08,56,15.40
2008,08,23,08,57,15.40
2008,08,23,08,58,15.40
2008,08,23,08,59,15.50
2008,08,23,09,00,15.50
2008,08,23,09,01,15.50
2008,08,23,09,02,15.60
2008,08,23,09,03,15.60
2008,08,23,09,04,15.70
2008,08,23,09,05,15.70
2008,08,23,09,06,15.70
2008,08,23,09,07,15.80
2008,08,23,09,08,15.80
2008,08,23,09,09,15.80
2008,08,23,09,10,15.80
2008,08,23,09,11,15.80
2008,08,23,09,12,15.90
2008,08,23,09,13,15.90
2008,08,23,09,14,16.00
2008,08,23,09,15,15.90
2008,08,23,09,16,15.90
2008,08,23,09,17,15.90
2008,08,23,09,18,15.90
2008,08,23,09,19,16.00
2008,08,23,09,20,16.10
2008,08,23,09,21,16.10
2008,08,23,09,22,16.10
2008,08,23,09,23,16.10
2008,08,23,09,24,16.20
2008,08,23,09,25,16.20
2008,08,23,09,26,16.20
2008,08,23,09,27,16.20
2008,08,23,09,28,16.30
2008,08,23,09,29,16.30
2008,08,23,09,30,16.40
2008,08,23,09,31,16.40
2008,08,23,09,32,16.40
2008,08,23,09,33,16.40
2008,08,23,09,34,16.50
2008,08,23,09,35,16.60
2008,08,23,09,36,16.60
2008,08,23,09,37,16.60
2008,08,23,09,38,16.70
2008,08,23,09,39,16.70
2008,08,23,09,40,16.70
2008,08,23,09,41,16.80
2008,08,23,09,42,16.90
2008,08,23,09,43,17.00
2008,08,23,09,44,17.00
2008,08,23,09,45,17.10
2008,08,23,09,46,17.20
2008,08,23,09,47,17.30
2008,08,23,09,48,17.30
2008,08,23,09,49,17.30
2008,08,23,09,50,17.40
2008,08,23,09,51,17.50
2008,08,23,09,52,17.50
2008,08,23,09,53,17.50
2008,08,23,09,54,17.60
2008,08,23,09,55,17.60
2008,08,23,09,56,17.70
2008,08,23,09,57,17.70
2008,08,23,09,58,17.80
2008,08,23,09,59,17.90
2008,08,23,10,00,17.90
2008,08,23,10,01,17.90
2008,08,23,10,02,17.90
2008,08,23,10,03,17.90
2008,08,23,10,04,18.00
2008,08,23,10,05,18.10
2008,08,23,10,06,18.10
2008,08,23,10,07,18.20
2008,08,23,10,08,18.20
2008,08,23,10,09,18.30
2008,08,23,10,10,18.30
2008,08,23,10,11,18.40
2008,08,23,10,12,18.40
2008,08,23,10,13,18.50
2008,08,23,10,14,18.50
2008,08,23,10,15,18.60
2008,08,23,10,16,18.70
2008,08,23,10,17,18.70
2008,08,23,10,18,18.80
2008,08,23,10,19,18.80
2008,08,23,10,20,18.90
2008,08,23,10,21,19.00
2008,08,23,10,22,19.10
2008,08,23,10,23,19.10
2008,08,23,10,24,19.20
2008,08,23,10,25,19.30
2008,08,23,10,26,19.40
2008,08,23,10,27,19.40
2008,08,23,10,28,19.40
2008,08,23,10,29,19.40
2008,08,23,10,30,19.50
2008,08,23,10,31,19.50
2008,08,23,10,32,19.60
2008,08,23,10,33,19.70
2008,08,23,10,34,19.80
2008,08,23,10,35,19.80
2008,08,23,10,36,19.90
2008,08,23,10,37,19.90
2008,08,23,10,38,20.00
2008,08,23,10,39,20.10
2008,08,23,10,40,20.10
2008,08,23,10,41,20.20
2008,08,23,10,42,20.20
2008,08,23,10,43,20.30
2008,08,23,10,44,20.30
2008,08,23,10,45,20.30
2008,08,23,10,46,20.40
2008,08,23,10,47,20.50
2008,08,23,10,48,20.30
2008,08,23,10,49,20.20
2008,08,23,10,50,20.20
2008,08,23,10,51,20.10
2008,08,23,10,52,20.00
2008,08,23,10,53,19.90
2008,08,23,10,54,19.90
2008,08,23,10,55,20.00
2008,08,23,10,56,20.10
2008,08,23,10,57,20.10
2008,08,23,10,58,20.10
2008,08,23,10,59,20.20
2008,08,23,11,00,20.20
2008,08,23,11,01,20.30
2008,08,23,11,02,20.40
2008,08,23,11,03,20.50
2008,08,23,11,04,20.60
2008,08,23,11,05,20.70
2008,08,23,11,06,20.70
2008,08,23,11,07,20.80
2008,08,23,11,08,20.90
2008,08,23,11,09,21.00
2008,08,23,11,10,21.10
2008,08,23,11,11,21.00
2008,08,23,11,12,20.90
2008,08,23,11,13,20.90
2008,08,23,11,14,21.00
2008,08,23,11,15,21.10
2008,08,23,11,16,21.10
2008,08,23,11,17,21.10
2008,08,23,11,18,21.00
2008,08,23,11,19,20.90
2008,08,23,11,20,20.80
2008,08,23,11,21,20.60
2008,08,23,11,22,20.50
2008,08,23,11,23,20.50
2008,08,23,11,24,20.50
2008,08,23,11,25,20.50
2008,08,23,11,26,20.50
2008,08,23,11,27,20.50
2008,08,23,11,28,20.50
2008,08,23,11,29,20.40
2008,08,23,11,30,20.50
2008,08,23,11,31,20.50
2008,08,23,11,32,20.50
2008,08,23,11,33,20.40
2008,08,23,11,34,20.40
2008,08,23,11,35,20.40
2008,08,23,11,36,20.30
2008,08,23,11,37,20.30
2008,08,23,11,38,20.40
2008,08,23,11,39,20.60
2008,08,23,11,40,20.70
2008,08,23,11,41,20.80
2008,08,23,11,42,20.90
2008,08,23,11,43,20.90
2008,08,23,11,44,20.80
2008,08,23,11,45,20.80
2008,08,23,11,46,20.90
2008,08,23,11,47,21.00
2008,08,23,11,48,21.10
2008,08,23,11,49,21.10
2008,08,23,11,50,21.20
2008,08,23,11,51,21.10
2008,08,23,11,52,21.00
2008,08,23,11,53,20.80
2008,08,23,11,54,20.70
2008,08,23,11,55,20.70
2008,08,23,11,56,20.60
2008,08,23,11,57,20.60
2008,08,23,11,58,20.60
2008,08,23,11,59,20.70
2008,08,23,12,00,20.70
2008,08,23,12,01,20.80
2008,08,23,12,02,20.80
2008,08,23,12,03,20.80
2008,08,23,12,04,20.80
2008,08,23,12,05,20.80
2008,08,23,12,06,20.80
2008,08,23,12,07,20.90
2008,08,23,12,08,20.80
2008,08,23,12,09,20.80
2008,08,23,12,10,20.80
2008,08,23,12,11,21.00
2008,08,23,12,12,21.10
2008,08,23,12,13,21.20
2008,08,23,12,14,21.30
2008,08,23,12,15,21.30
2008,08,23,12,16,21.40
2008,08,23,12,17,21.40
2008,08,23,12,18,21.40
2008,08,23,12,19,21.40
2008,08,23,12,20,21.40
2008,08,23,12,21,21.50
2008,08,23,12,22,21.60
2008,08,23,12,23,21.60
2008,08,23,12,24,21.60
2008,08,23,12,25,21.70
2008,08,23,12,26,21.70
2008,08,23,12,27,21.80
2008,08,23,12,28,21.80
2008,08,23,12,29,21.80
2008,08,23,12,30,21.90
2008,08,23,12,31,22.00
2008,08,23,12,32,22.00
2008,08,23,12,33,22.00
2008,08,23,12,34,21.90
2008,08,23,12,35,21.90
2008,08,23,12,36,21.90
2008,08,23,12,37,21.80
2008,08,23,12,38,21.70
2008,08,23,12,39,21.60
2008,08,23,12,40,21.50
2008,08,23,12,41,21.20
2008,08,23,12,42,21.20
2008,08,23,12,43,21.20
2008,08,23,12,44,21.20
2008,08,23,12,45,21.30
2008,08,23,12,46,21.30
2008,08,23,12,47,21.30
2008,08,23,12,48,21.40
2008,08,23,12,49,21.50
2008,08,23,12,50,21.60
2008,08,23,12,51,21.60
2008,08,23,12,52,21.70
2008,08,23,12,53,21.70
2008,08,23,12,54,21.70
2008,08,23,12,55,21.70
2008,08,23,12,56,21.70
2008,08,23,12,57,21.80
2008,08,23,12,58,21.80
2008,08,23,12,59,21.80
2008,08,23,13,00,21.90
2008,08,23,13,01,21.90
2008,08,23,13,02,21.90
2008,08,23,13,03,21.90
2008,08,23,13,04,21.70
2008,08,23,13,05,21.70
2008,08,23,13,06,21.60
2008,08,23,13,07,21.60
2008,08,23,13,08,21.60
2008,08,23,13,09,21.60
2008,08,23,13,10,21.60
2008,08,23,13,11,21.60
2008,08,23,13,12,21.50
2008,08,23,13,13,21.40
2008,08,23,13,14,21.30
2008,08,23,13,15,21.30
2008,08,23,13,16,21.30
2008,08,23,13,17,21.20
2008,08,23,13,18,21.20
2008,08,23,13,19,21.20
2008,08,23,13,20,21.20
2008,08,23,13,21,21.20
2008,08,23,13,22,21.20
2008,08,23,13,23,21.20
2008,08,23,13,24,21.20
2008,08,23,13,25,21.20
2008,08,23,13,26,21.20
2008,08,23,13,27,21.30
2008,08,23,13,28,21.30
2008,08,23,13,29,21.30
2008,08,23,13,30,21.30
2008,08,23,13,31,21.40
2008,08,23,13,32,21.40
2008,08,23,13,33,21.50
2008,08,23,13,34,21.60
2008,08,23,13,35,21.60
2008,08,23,13,36,21.60
2008,08,23,13,37,21.60
2008,08,23,13,38,21.60
2008,08,23,13,39,21.60
2008,08,23,13,40,21.70
2008,08,23,13,41,21.80
2008,08,23,13,42,21.80
2008,08,23,13,43,21.90
2008,08,23,13,44,22.00
2008,08,23,13,45,22.00
2008,08,23,13,46,22.10
2008,08,23,13,47,22.20
2008,08,23,13,48,22.30
2008,08,23,13,49,22.30
2008,08,23,13,50,22.40
2008,08,23,13,51,22.40
2008,08,23,13,52,22.40
2008,08,23,13,53,22.40
2008,08,23,13,54,22.40
2008,08,23,13,55,22.40
2008,08,23,13,56,22.40
2008,08,23,13,57,22.40
2008,08,23,13,58,22.40
2008,08,23,13,59,22.50
2008,08,23,14,00,22.50
2008,08,23,14,01,22.50
2008,08,23,14,02,22.40
2008,08,23,14,03,22.40
2008,08,23,14,04,22.30
2008,08,23,14,05,22.30
2008,08,23,14,06,22.30
2008,08,23,14,07,22.40
2008,08,23,14,08,22.30
2008,08,23,14,09,22.30
2008,08,23,14,10,22.30
2008,08,23,14,11,22.30
2008,08,23,14,12,22.30
2008,08,23,14,13,22.30
2008,08,23,14,14,22.30
2008,08,23,14,15,22.30
2008,08,23,14,16,22.30
2008,08,23,14,17,22.30
2008,08,23,14,18,22.30
2008,08,23,14,19,22.30
2008,08,23,14,20,22.30
2008,08,23,14,21,22.30
2008,08,23,14,22,22.30
2008,08,23,14,23,22.30
2008,08,23,14,24,22.40
2008,08,23,14,25,22.40
2008,08,23,14,26,22.30
2008,08,23,14,27,22.30
2008,08,23,14,28,22.40
2008,08,23,14,29,22.50
2008,08,23,14,30,22.50
2008,08,23,14,31,22.50
2008,08,23,14,32,22.40
2008,08,23,14,33,22.40
2008,08,23,14,34,22.30
2008,08,23,14,35,22.30
2008,08,23,14,36,22.30
2008,08,23,14,37,22.20
2008,08,23,14,38,22.10
2008,08,23,14,39,22.00
2008,08,23,14,40,21.90
2008,08,23,14,41,21.80
2008,08,23,14,42,21.90
2008,08,23,14,43,22.00
2008,08,23,14,44,22.10
2008,08,23,14,45,22.30
2008,08,23,14,46,22.30
2008,08,23,14,47,22.50
2008,08,23,14,48,22.70
2008,08,23,14,49,22.80
2008,08,23,14,50,22.90
2008,08,23,14,51,22.90
2008,08,23,14,52,23.00
2008,08,23,14,53,23.10
2008,08,23,14,54,23.10
2008,08,23,14,55,23.10
2008,08,23,14,56,23.00
2008,08,23,14,57,22.90
2008,08,23,14,58,22.90
2008,08,23,14,59,22.90
2008,08,23,15,00,22.90
2008,08,23,15,01,23.00
2008,08,23,15,02,23.00
2008,08,23,15,03,22.90
2008,08,23,15,04,23.10
2008,08,23,15,05,23.10
2008,08,23,15,06,23.10
2008,08,23,15,07,23.10
2008,08,23,15,08,23.10
2008,08,23,15,09,23.00
2008,08,23,15,10,22.90
2008,08,23,15,11,22.90
2008,08,23,15,12,22.90
2008,08,23,15,13,22.90
2008,08,23,15,14,22.90
2008,08,23,15,15,22.80
2008,08,23,15,16,22.70
2008,08,23,15,17,22.70
2008,08,23,15,18,22.60
2008,08,23,15,19,22.60
2008,08,23,15,20,22.60
2008,08,23,15,21,22.50
2008,08,23,15,22,22.50
2008,08,23,15,23,22.50
2008,08,23,15,24,22.60
2008,08,23,15,25,22.60
2008,08,23,15,26,22.60
2008,08,23,15,27,22.70
2008,08,23,15,28,22.70
2008,08,23,15,29,22.70
2008,08,23,15,30,22.70
2008,08,23,15,31,22.80
2008,08,23,15,32,22.80
2008,08,23,15,33,22.80
2008,08,23,15,34,22.80
2008,08,23,15,35,22.80
2008,08,23,15,36,22.80
2008,08,23,15,37,22.70
2008,08,23,15,38,22.70
2008,08,23,15,39,22.60
2008,08,23,15,40,22.50
2008,08,23,15,41,22.50
2008,08,23,15,42,22.40
2008,08,23,15,43,22.40
2008,08,23,15,44,22.40
2008,08,23,15,45,22.40
2008,08,23,15,46,22.40
2008,08,23,15,47,22.50
2008,08,23,15,48,22.50
2008,08,23,15,49,22.50
2008,08,23,15,50,22.60
2008,08,23,15,51,22.60
2008,08,23,15,52,22.70
2008,08,23,15,53,22.70
2008,08,23,15,54,22.80
2008,08,23,15,55,22.80
2008,08,23,15,56,22.90
2008,08,23,15,57,22.90
2008,08,23,15,58,23.00
2008,08,23,15,59,23.10
2008,08,23,16,00,23.20
2008,08,23,16,01,23.30
2008,08,23,16,02,23.30
2008,08,23,16,03,23.30
2008,08,23,16,04,23.40
2008,08,23,16,05,23.40
2008,08,23,16,06,23.10
2008,08,23,16,07,23.10
2008,08,23,16,08,23.10
2008,08,23,16,09,23.10
2008,08,23,16,10,23.10
2008,08,23,16,11,23.10
2008,08,23,16,12,23.10
2008,08,23,16,13,23.20
2008,08,23,16,14,23.30
2008,08,23,16,15,23.30
2008,08,23,16,16,23.30
2008,08,23,16,17,23.40
2008,08,23,16,18,23.40
2008,08,23,16,19,23.50
2008,08,23,16,20,23.60
2008,08,23,16,21,23.60
2008,08,23,16,22,23.60
2008,08,23,16,23,23.50
2008,08,23,16,24,23.40
2008,08,23,16,25,23.20
2008,08,23,16,26,23.00
2008,08,23,16,27,22.90
2008,08,23,16,28,22.80
2008,08,23,16,29,22.70
2008,08,23,16,30,22.70
2008,08,23,16,31,22.80
2008,08,23,16,32,22.70
2008,08,23,16,33,22.70
2008,08,23,16,34,22.80
2008,08,23,16,35,22.80
2008,08,23,16,36,22.80
2008,08,23,16,37,22.80
2008,08,23,16,38,22.90
2008,08,23,16,39,22.90
2008,08,23,16,40,23.00
2008,08,23,16,41,23.10
2008,08,23,16,42,23.20
2008,08,23,16,43,23.20
2008,08,23,16,44,23.30
2008,08,23,16,45,23.30
2008,08,23,16,46,23.20
2008,08,23,16,47,23.20
2008,08,23,16,48,23.20
2008,08,23,16,49,23.20
2008,08,23,16,50,23.20
2008,08,23,16,51,23.30
2008,08,23,16,52,23.30
2008,08,23,16,53,23.20
2008,08,23,16,54,23.20
2008,08,23,16,55,23.20
2008,08,23,16,56,23.20
2008,08,23,16,57,23.10
2008,08,23,16,58,23.00
2008,08,23,16,59,22.90
2008,08,23,17,00,22.90
2008,08,23,17,01,22.80
2008,08,23,17,02,22.80
2008,08,23,17,03,22.70
2008,08,23,17,04,22.60
2008,08,23,17,05,22.60
2008,08,23,17,06,22.50
2008,08,23,17,07,22.40
2008,08,23,17,08,22.40
2008,08,23,17,09,22.40
2008,08,23,17,10,22.40
2008,08,23,17,11,22.40
2008,08,23,17,12,22.40
2008,08,23,17,13,22.40
2008,08,23,17,14,22.30
2008,08,23,17,15,22.30
2008,08,23,17,16,22.30
2008,08,23,17,17,22.30
2008,08,23,17,18,22.30
2008,08,23,17,19,22.30